CST,Max TemperatureF,Mean TemperatureF,Min TemperatureF,Max Dew PointF,MeanDew PointF,Min DewpointF,Max Humidity, Mean Humidity, Min Humidity, Max Sea Level PressureIn, Mean Sea Level PressureIn, Min Sea Level PressureIn, Max VisibilityMiles, Mean VisibilityMiles, Min VisibilityMiles, Max Wind SpeedMPH, Mean Wind SpeedMPH, Max Gust SpeedMPH,PrecipitationIn, CloudCover, Events, WindDirDegrees
2014-1-1,-9,-18,-28,-18,-23,-33,82,72,62,30.60,30.56,30.53,10,9,3,6,2,8,0.01,5,Snow,45
2014-1-2,-6,-19,-33,-12,-22,-36,84,77,69,30.58,30.45,30.05,10,9,3,25,8,31,T,2,Snow,173
2014-1-3,25,10,-6,24,6,-10,92,82,72,30.02,29.51,29.20,6,2,0,36,23,43,0.08,8,Rain-Snow,181
2014-1-4,10,-4,-18,7,-7,-25,88,74,59,30.35,29.98,29.58,10,7,0,33,16,40,T,4,Fog-Snow,324
2014-1-5,-17,-20,-24,-26,-28,-30,73,64,55,30.56,30.49,30.36,10,10,4,21,13,25,T,2,Snow,304
2014-1-6,-11,-18,-26,-19,-27,-34,74,68,61,30.47,30.34,30.14,10,10,3,18,10,22,0.00,4,,282
2014-1-7,-5,-14,-24,-14,-19,-28,86,75,64,30.36,30.21,30.03,10,10,8,10,4,12,0.00,5,,300
2014-1-8,-2,-15,-28,-8,-20,-32,82,76,70,30.47,30.33,30.13,10,10,10,22,9,28,0.00,2,,200
2014-1-9,23,11,-1,18,10,-5,88,82,75,30.11,29.80,29.62,10,8,2,31,24,39,T,7,,180
2014-1-10,28,22,15,24,17,11,92,86,80,29.60,29.48,29.39,10,6,2,22,13,26,T,5,Snow,193
2014-1-11,27,19,11,20,17,11,92,83,74,29.62,29.54,29.35,10,10,9,21,9,25,0.00,4,,274
2014-1-12,40,32,23,30,25,17,88,76,64,29.55,29.32,29.17,10,10,10,28,14,33,0.00,5,,277
2014-1-13,24,20,16,16,13,10,88,78,67,29.67,29.61,29.56,10,7,1,21,8,24,0.04,7,Snow,4
2014-1-14,16,2,-13,12,6,-16,92,83,73,30.27,29.97,29.61,10,5,1,28,12,34,0.04,8,Snow,339
2014-1-15,39,11,-17,29,7,-20,88,74,59,30.22,29.61,29.23,10,6,0,32,19,40,0.02,6,Snow,211
2014-1-16,36,17,-3,24,3,-11,88,77,65,30.20,29.73,29.30,10,3,0,47,30,57,0.01,6,Fog-Snow,347
2014-1-17,14,-1,-17,11,-2,-21,84,75,65,30.19,29.82,29.41,10,6,0,23,12,27,0.21,4,Snow,171
2014-1-18,35,21,7,27,13,2,88,82,75,30.00,29.69,29.39,10,8,1,24,14,30,0.04,7,Snow,302
2014-1-19,34,21,7,26,17,3,92,84,75,29.84,29.59,29.47,10,8,2,23,11,27,T,7,Snow,335
2014-1-20,7,-10,-28,2,-13,-33,88,79,70,30.64,30.31,29.88,10,5,1,31,17,36,T,5,Snow,347
2014-1-21,9,-6,-22,3,-8,-30,87,76,64,30.56,30.11,29.93,10,6,0,25,13,31,0.03,7,Snow,202
2014-1-22,5,-9,-24,0,-12,-29,86,75,64,30.74,30.35,30.01,10,4,0,37,19,44,0.01,6,Fog-Snow,344
2014-1-23,25,-1,-27,19,-13,-30,82,73,64,30.79,30.44,29.71,10,9,5,26,13,36,T,3,Snow,228
2014-1-24,34,18,1,30,19,-8,92,76,60,29.87,29.64,29.47,10,7,0,38,17,46,0.03,7,Rain-Snow,322
2014-1-25,5,-1,-8,0,-5,-14,87,72,57,30.06,29.73,29.43,10,5,1,33,12,41,0.15,6,Snow,126
2014-1-26,12,0,-13,7,-7,-21,86,75,63,30.34,29.74,29.38,10,3,0,43,24,52,0.01,7,Snow,330
2014-1-27,-9,-15,-22,-19,-24,-28,77,67,57,30.51,30.44,30.31,10,10,9,23,11,28,0.00,3,,296
2014-1-28,2,-9,-20,-8,-18,-27,77,68,58,30.41,30.21,29.96,10,10,10,18,10,20,0.00,2,,270
2014-1-29,22,6,-11,12,-1,-16,79,70,61,29.94,29.63,29.42,10,10,10,25,13,32,0.00,6,,245
2014-1-30,8,-3,-14,-4,-12,-18,75,70,64,30.04,29.90,29.68,10,10,2,22,11,25,T,5,Snow,320
2014-1-31,7,-5,-17,-2,-11,-22,87,76,65,30.03,29.94,29.85,10,10,10,16,10,20,0.00,2,,202